FW0403 Weather Reports


time (UTC)temp
C
wind
direction
speed
KPH
gust
KPH
rain 1hr
cm
rain 24hr
cm
rain mn
cm
humidity
%
barometer
mb
20260507161431 20 47 17.7 32.2 0.00 0.03 0.03 83 1014.3
20260507160934 20 15 17.7 32.2 0.00 0.03 0.03 83 1014.3
20260507160413 20 36 17.7 33.8 0.00 0.03 0.03 83 1014.3
20260507155900 20 41 17.7 33.8 0.00 0.03 0.03 83 1014.2
20260507155339 20 55 17.7 33.8 0.00 0.03 0.03 83 1014.3
20260507154844 20 21 17.7 33.8 0.00 0.03 0.03 83 1014.3
20260507154333 20 30 20.9 32.2 0.00 0.03 0.03 83 1014.3
20260507153835 20 42 20.9 32.2 0.00 0.03 0.03 83 1014.4
20260507153313 20 2 19.3 32.2 0.00 0.03 0.03 83 1014.5
20260507152811 20 13 17.7 32.2 0.00 0.03 0.03 83 1014.5
20260507152259 20 2 17.7 32.2 0.00 0.03 0.03 83 1014.2
20260507151753 20 15 19.3 32.2 0.00 0.03 0.03 83 1014.0
20260507151240 20 50 17.7 32.2 0.00 0.03 0.03 83 1013.9
20260507150740 20 11 16.1 32.2 0.00 0.03 0.03 83 1014.0
20260507150219 20 340 19.3 37.0 0.00 0.03 0.03 83 1013.9
20260507145659 20 26 20.9 37.0 0.00 0.03 0.03 83 1013.9
20260507144504 20 44 19.3 33.8 0.00 0.03 0.03 83 1014.0
20260507143348 20 42 16.1 33.8 0.00 0.03 0.03 83 1014.0
20260507142212 21 44 17.7 33.8 0.00 0.03 0.03 83 1013.8
20260507141029 21 64 17.7 32.2 0.00 0.03 0.03 83 1013.9
20260507140509 21 62 16.1 32.2 0.00 0.03 0.03 83 1013.9
20260507135949 21 26 16.1 32.2 0.00 0.03 0.03 83 1014.0
20260507135446 21 48 17.7 32.2 0.00 0.03 0.03 83 1013.9
20260507134938 21 357 19.3 32.2 0.00 0.03 0.03 84 1013.9
20260507134434 21 60 19.3 32.2 0.00 0.03 0.03 84 1013.9
20260507133940 21 2 17.7 29.0 0.00 0.03 0.03 84 1013.9
20260507133437 21 23 16.1 25.7 0.00 0.03 0.03 84 1014.0
20260507132919 21 7 14.5 25.7 0.00 0.03 0.03 84 1013.8
20260507132402 21 47 12.9 25.7 0.00 0.03 0.03 84 1013.9
20260507131859 21 36 11.3 24.1 0.00 0.03 0.03 84 1013.7
20260507130735 21 11 9.7 22.5 0.00 0.03 0.03 85 1013.8
20260507130216 21 53 9.7 22.5 0.00 0.03 0.03 85 1013.9
20260507125654 21 11 12.9 22.5 0.00 0.03 0.03 85 1013.7
20260507125139 21 46 12.9 22.5 0.00 0.03 0.03 85 1013.6
20260507124829 21 20 11.3 25.7 0.00 0.03 0.03 85 1013.5
20260507124318 21 346 9.7 25.7 0.00 0.03 0.03 85 1013.6
20260507123822 21 40 11.3 25.7 0.00 0.03 0.03 85 1013.3
20260507123324 21 57 12.9 25.7 0.00 0.03 0.03 85 1013.4
20260507122805 21 51 11.3 20.9 0.00 0.03 0.03 85 1013.2
20260507122244 21 42 11.3 20.9 0.00 0.03 0.03 85 1012.9
20260507121728 21 30 9.7 20.9 0.00 0.03 0.03 85 1012.9
20260507120607 21 34 11.3 27.4 0.00 0.03 0.03 85 1012.7
20260507120110 21 47 9.7 27.4 0.00 0.03 0.03 85 1012.7
20260507115605 21 44 8.0 29.0 0.00 0.03 0.03 85 1012.7
20260507115056 21 11 14.5 29.0 0.00 0.03 0.03 85 1012.5
20260507114553 21 46 16.1 29.0 0.00 0.03 0.03 85 1012.6
20260507114037 21 30 16.1 29.0 0.00 0.03 0.03 85 1012.5
20260507113524 21 30 16.1 25.7 0.00 0.03 0.03 85 1012.6
20260507113014 21 32 16.1 25.7 0.00 0.03 0.03 85 1012.4
20260507112516 21 28 16.1 32.2 0.00 0.03 0.03 85 1012.4
20260507111958 21 31 17.7 32.2 0.00 0.03 0.03 85 1012.3
20260507111507 21 25 17.7 32.2 0.00 0.03 0.03 85 1012.3
20260507110952 22 2 16.1 32.2 0.00 0.03 0.03 86 1012.2
20260507110448 22 331 14.5 29.0 0.00 0.03 0.03 86 1012.2
20260507105933 22 26 16.1 29.0 0.00 0.03 0.03 86 1012.0
20260507105414 22 11 17.7 29.0 0.00 0.03 0.03 86 1012.0
20260507104854 22 20 16.1 29.0 0.00 0.03 0.03 86 1011.9
20260507104358 22 26 12.9 27.4 0.00 0.03 0.03 86 1011.8
20260507103852 22 42 14.5 24.1 0.00 0.03 0.03 86 1011.8
20260507103354 22 42 16.1 25.7 0.00 0.03 0.03 86 1011.6
20260507102236 22 34 14.5 29.0 0.00 0.03 0.03 86 1011.6
20260507101739 22 59 16.1 29.0 0.00 0.03 0.03 86 1011.6
20260507100558 22 12 17.7 29.0 0.00 0.03 0.03 86 1011.5
20260507100041 22 30 19.3 29.0 0.00 0.03 0.03 86 1011.5
20260507095547 22 352 19.3 29.0 0.00 0.03 0.03 86 1011.6
20260507095025 22 333 16.1 29.0 0.00 0.03 0.03 87 1011.5
20260507094506 22 336 17.7 30.6 0.00 0.03 0.03 87 1011.6
20260507093313 22 2 17.7 30.6 0.00 0.03 0.03 87 1011.5
20260507092812 22 357 0.0 30.6 0.00 0.03 0.03 87 1011.5
20260507091640 22 2 17.7 25.7 0.00 0.03 0.03 87 1011.1
20260507091127 22 20 17.7 25.7 0.00 0.03 0.03 87 1011.0
20260507090627 22 33 14.5 25.7 0.00 0.03 0.03 87 1011.0
20260507090108 22 340 12.9 20.9 0.00 0.03 0.03 87 1011.0
20260507085554 22 21 14.5 27.4 0.00 0.03 0.03 87 1010.9
20260507084406 22 17 14.5 27.4 0.00 0.03 0.03 87 1010.9
20260507083913 23 2 14.5 25.7 0.00 0.03 0.03 87 1010.9
20260507083359 23 28 14.5 24.1 0.00 0.03 0.03 87 1010.8
20260507082840 23 344 14.5 24.1 0.00 0.03 0.03 87 1010.8
20260507082336 23 28 14.5 25.7 0.00 0.03 0.03 87 1010.9
20260507081813 23 11 12.9 25.7 0.00 0.03 0.03 87 1010.9
20260507080621 23 2 14.5 24.1 0.00 0.03 0.03 87 1010.8
20260507080109 23 7 12.9 27.4 0.00 0.03 0.03 87 1010.9
20260507074322 23 2 14.5 27.4 0.00 0.03 0.03 87 1010.9
20260507073139 23 2 9.7 24.1 0.00 0.03 0.03 87 1010.9
20260507072630 23 357 9.7 20.9 0.00 0.03 0.03 87 1011.0
20260507071501 23 344 8.0 20.9 0.00 0.03 0.03 87 1011.1
20260507070351 24 327 9.7 17.7 0.00 0.03 0.03 87 1011.1
20260507065839 24 334 9.7 16.1 0.00 0.03 0.03 87 1011.0
20260507065324 24 357 9.7 17.7 0.00 0.03 0.03 87 1011.1
20260507064805 24 53 8.0 17.7 0.00 0.03 0.03 87 1011.0
20260507063039 25 357 8.0 17.7 0.00 0.00 0.00 87 1011.1
20260507062540 25 324 6.4 12.9 0.00 0.00 0.00 88 1011.0
20260507062037 26 345 3.2 12.9 0.00 0.00 0.00 88 1011.0
20260507061520 26 337 0.0 3.2 0.00 0.00 0.00 88 1011.0
20260507060345 26 340 0.0 1.6 0.00 0.00 0.00 88 1010.8
20260507055827 26 340 0.0 0.0 0.00 0.00 0.00 88 1010.9
20260507055315 26 340 0.0 1.6 0.00 0.00 0.00 88 1010.8
20260507054126 26 309 0.0 1.6 0.00 0.00 0.00 88 1010.9
20260507053018 26 315 0.0 0.0 0.00 0.00 0.00 88 1010.9
20260507052501 26 317 0.0 4.8 0.00 0.00 0.00 88 1010.9
20260507051950 26 281 0.0 3.2 0.00 0.00 0.00 88 1011.0
20260507051442 26 315 0.0 3.2 0.00 0.00 0.00 88 1010.9
20260507050313 26 299 0.0 4.8 0.00 0.00 0.00 88 1010.9
20260507045201 26 238 0.0 1.6 0.00 0.00 0.00 87 1011.0
20260507044646 26 221 0.0 1.6 0.00 0.00 0.00 87 1011.0
20260507044124 26 214 0.0 0.0 0.00 0.00 0.00 87 1011.0
20260507042948 26 198 1.6 6.4 0.00 0.00 0.00 87 1010.7
20260507042455 26 209 1.6 4.8 0.00 0.00 0.00 87 1010.8
20260507041955 26 217 0.0 3.2 0.00 0.00 0.00 87 1010.8
20260507041445 26 213 0.0 4.8 0.00 0.00 0.00 87 1010.8
20260507040929 26 214 0.0 4.8 0.00 0.00 0.00 87 1010.7
20260507040435 26 211 0.0 9.7 0.00 0.00 0.00 87 1010.7
20260507035915 26 190 3.2 9.7 0.00 0.00 0.00 87 1010.6
20260507034751 26 191 6.4 9.7 0.00 0.00 0.00 87 1010.2
20260507034253 26 198 4.8 14.5 0.00 0.00 0.00 87 1010.0
20260507033747 26 190 6.4 14.5 0.00 0.00 0.00 87 1010.1
20260507032623 26 170 6.4 16.1 0.00 0.00 0.00 87 1009.7
20260507031427 26 186 8.0 16.1 0.00 0.00 0.00 87 1009.7
20260507030923 26 196 8.0 16.1 0.00 0.00 0.00 87 1009.6
20260507030421 26 2 6.4 12.9 0.00 0.00 0.00 87 1009.5
20260507025900 26 192 4.8 8.0 0.00 0.00 0.00 87 1009.6
20260507024737 26 181 4.8 9.7 0.00 0.00 0.00 87 1009.5
20260507024231 26 2 4.8 9.7 0.00 0.00 0.00 87 1009.6
20260507023728 26 167 4.8 9.7 0.00 0.00 0.00 87 1009.5
20260507023219 26 189 4.8 9.7 0.00 0.00 0.00 87 1009.5
20260507022709 26 156 6.4 14.5 0.00 0.00 0.00 87 1009.5
20260507022211 26 189 6.4 14.5 0.00 0.00 0.00 87 1009.4
20260507021650 26 161 9.7 17.7 0.00 0.00 0.00 86 1009.4
20260507021134 26 2 9.7 17.7 0.00 0.00 0.00 86 1009.4
20260507015951 26 194 12.9 17.7 0.00 0.00 0.00 86 1009.2
20260507015441 26 165 11.3 16.1 0.00 0.00 0.00 86 1009.1
20260507014940 26 194 9.7 16.1 0.00 0.00 0.00 86 1009.0
20260507014435 26 199 9.7 16.1 0.00 0.00 0.00 86 1008.9
20260507013914 26 2 9.7 16.1 0.00 0.00 0.00 86 1008.9
20260507013359 26 2 9.7 14.5 0.00 0.00 0.00 86 1008.8
20260507012856 26 188 9.7 14.5 0.00 0.00 0.00 86 1008.6
20260507012354 26 2 8.0 14.5 0.00 0.00 0.00 86 1008.6
20260507011843 26 161 6.4 14.5 0.00 0.00 0.00 85 1008.5
20260507011336 26 163 6.4 12.9 0.00 0.00 0.00 85 1008.6
20260507010823 27 177 6.4 12.9 0.00 0.00 0.00 85 1008.6
20260507005652 27 140 3.2 8.0 0.00 0.00 0.00 85 1008.3
20260507005132 27 204 3.2 8.0 0.00 0.00 0.00 85 1008.2
20260507004618 27 182 4.8 8.0 0.00 0.00 0.00 85 1008.2
20260507004123 27 2 4.8 9.7 0.00 0.00 0.00 85 1008.3
20260507003605 27 174 4.8 9.7 0.00 0.00 0.00 85 1008.2
20260507002443 27 140 4.8 9.7 0.00 0.00 0.00 84 1008.2
20260507001928 27 133 6.4 12.9 0.00 0.00 0.00 84 1008.2
20260507001408 27 199 6.4 12.9 0.00 0.00 0.00 84 1008.3
20260507000239 27 184 6.4 12.9 0.00 0.00 0.00 84 1008.2
20260506235716 27 2 6.4 11.3 0.00 0.00 0.00 84 1008.1
20260506235212 27 161 6.4 11.3 0.00 0.00 0.00 84 1008.1
20260506234719 27 2 6.4 11.3 0.00 0.00 0.00 84 1008.1
20260506234205 27 170 4.8 9.7 0.00 0.00 0.00 84 1008.1
20260506233656 27 100 4.8 8.0 0.00 0.00 0.00 84 1008.1
20260506232511 27 161 3.2 8.0 0.00 0.00 0.00 83 1007.9
20260506231949 27 164 4.8 8.0 0.00 0.00 0.00 83 1008.0
20260506231443 27 2 3.2 8.0 0.00 0.00 0.00 83 1008.0
20260506230940 27 176 3.2 9.7 0.00 0.00 0.00 83 1008.0
20260506230427 27 138 4.8 9.7 0.00 0.00 0.00 83 1008.0
20260506225920 27 188 4.8 12.9 0.00 0.00 0.00 83 1007.9
20260506225411 27 163 6.4 12.9 0.00 0.00 0.00 83 1007.8
20260506224914 27 174 6.4 12.9 0.00 0.00 0.00 83 1007.7
20260506223753 27 2 4.8 12.9 0.00 0.00 0.00 83 1007.8
20260506223234 27 2 4.8 12.9 0.00 0.00 0.00 83 1007.8
20260506222725 27 165 6.4 12.9 0.00 0.00 0.00 83 1007.7
20260506222222 27 173 6.4 12.9 0.00 0.00 0.00 82 1007.8
20260506221709 27 157 4.8 11.3 0.00 0.00 0.00 83 1007.8
20260506221201 27 171 4.8 12.9 0.00 0.00 0.00 83 1007.9
20260506220706 27 159 6.4 12.9 0.00 0.00 0.00 82 1007.8
20260506215540 27 188 8.0 14.5 0.00 0.00 0.00 83 1007.8
20260506215044 27 199 6.4 14.5 0.00 0.00 0.00 83 1007.9
20260506214550 27 117 6.4 14.5 0.00 0.00 0.00 83 1007.9
20260506214056 27 200 8.0 12.9 0.00 0.00 0.00 83 1008.0
20260506213538 27 150 8.0 12.9 0.00 0.00 0.00 83 1008.1
20260506213029 27 2 8.0 16.1 0.00 0.00 0.00 83 1008.1
20260506212516 27 161 9.7 16.1 0.00 0.00 0.00 83 1008.1
20260506211329 27 150 9.7 19.3 0.00 0.00 0.00 83 1008.2
20260506210821 27 214 9.7 19.3 0.00 0.00 0.00 82 1008.2
20260506210319 27 155 9.7 14.5 0.00 0.00 0.00 83 1008.1
20260506205802 27 150 8.0 14.5 0.00 0.00 0.00 83 1008.3
20260506205244 27 143 8.0 12.9 0.00 0.00 0.00 83 1008.3
20260506204726 27 185 8.0 17.7 0.00 0.00 0.00 84 1008.2
20260506204227 27 136 8.0 17.7 0.00 0.00 0.00 84 1008.3
20260506203706 27 128 9.7 17.7 0.00 0.00 0.00 84 1008.3
20260506202532 27 143 9.7 16.1 0.00 0.00 0.00 83 1008.3
20260506202025 27 150 9.7 16.1 0.00 0.00 0.00 83 1008.3
20260506201510 27 150 9.7 16.1 0.00 0.00 0.00 83 1008.5
20260506201001 27 169 8.0 14.5 0.00 0.00 0.00 84 1008.6
20260506200446 27 104 8.0 17.7 0.00 0.00 0.00 84 1008.6
20260506195946 27 157 8.0 17.7 0.00 0.00 0.00 84 1008.8
20260506195425 27 112 8.0 17.7 0.00 0.00 0.00 84 1008.8
20260506194917 27 92 8.0 17.7 0.00 0.00 0.00 84 1008.9
20260506194357 27 125 8.0 14.5 0.00 0.00 0.00 84 1009.0
20260506193848 27 111 8.0 14.5 0.00 0.00 0.00 84 1009.0
20260506193331 27 167 8.0 14.5 0.00 0.00 0.00 84 1009.1
20260506192813 27 2 8.0 14.5 0.00 0.00 0.00 84 1009.1
20260506192300 27 143 8.0 16.1 0.00 0.00 0.00 84 1009.2
20260506191803 27 165 8.0 16.1 0.00 0.00 0.00 84 1009.2
20260506191241 27 206 8.0 16.1 0.00 0.00 0.00 84 1009.4
20260506190725 27 194 8.0 16.1 0.00 0.00 0.00 84 1009.4
20260506185549 27 136 8.0 14.5 0.00 0.00 0.00 84 1009.4
20260506185050 27 174 8.0 14.5 0.00 0.00 0.00 84 1009.5
20260506184535 27 144 8.0 14.5 0.00 0.00 0.00 85 1009.6
20260506184015 27 152 6.4 14.5 0.00 0.00 0.00 85 1009.6
20260506183500 27 157 4.8 9.7 0.00 0.00 0.00 85 1009.6
20260506182333 27 179 1.6 8.0 0.00 0.00 0.00 85 1009.8
20260506181830 27 173 0.0 6.4 0.00 0.00 0.00 85 1009.8
20260506181322 27 130 0.0 4.8 0.00 0.00 0.00 85 1009.9
20260506180138 27 66 1.6 4.8 0.00 0.00 0.00 85 1009.9
20260506175619 27 87 1.6 4.8 0.00 0.00 0.00 85 1010.0
20260506175111 27 219 0.0 3.2 0.00 0.00 0.00 85 1009.9
20260506174604 27 116 0.0 3.2 0.00 0.00 0.00 85 1009.9
20260506173417 27 103 0.0 4.8 0.00 0.00 0.00 85 1010.2
20260506172920 27 80 0.0 6.4 0.00 0.00 0.00 85 1010.2
20260506172418 27 163 0.0 6.4 0.00 0.00 0.00 86 1010.3
20260506171915 27 55 1.6 6.4 0.00 0.00 0.00 86 1010.1
20260506171418 27 133 0.0 6.4 0.00 0.00 0.00 86 1010.1
20260506170924 27 179 0.0 6.4 0.00 0.00 0.00 86 1010.1
20260506170428 27 155 0.0 6.4 0.00 0.00 0.00 86 1010.2
20260506165930 27 210 0.0 9.7 0.00 0.00 0.00 86 1010.1
20260506164751 27 117 3.2 9.7 0.00 0.00 0.00 87 1010.1
20260506164229 27 101 3.2 9.7 0.00 0.00 0.00 87 1010.0
20260506163709 27 140 4.8 8.0 0.00 0.00 0.00 87 1010.2
20260506163212 27 151 4.8 8.0 0.00 0.00 0.00 87 1010.2
20260506162706 26 2 4.8 11.3 0.00 0.00 0.00 87 1010.2
20260506162213 26 150 4.8 11.3 0.00 0.00 0.00 87 1010.1